Weather History for Bakersfield, CA

Change the Weather History Date:

Thursday, November 8, 2012

  Actual Average Record
Temperature  
Mean Temperature 59 °F 58 °F  
Max Temperature 65 °F 69 °F 95 °F (1918)
Min Temperature 53 °F 47 °F 31 °F (1937)
Degree Days  
Heating Degree Days 6    
Month to date heating degree days 19  
Since 1 July heating degree days 55  
Cooling Degree Days 0    
Month to date cooling degree days 8  
Year to date cooling degree days 2578  
Growing Degree Days 10 (Base 50)    
Moisture  
Dew Point 44 °F    
Average Humidity 56    
Maximum Humidity 67    
Minimum Humidity 45    
Precipitation  
Precipitation T in 0.02 in 0.76 in (2002)
Month to date precipitation T 0.15  
Year to date precipitation 3.66 4.96  
Since 1 July precipitation 0.04 0.57  
Snow  
Snow 0.00 in - - ()
Month to date snowfall 0.0  
Since 1 July snowfall 0.0  
Since 1 September snowfall 0.0  
Snow Depth 0.00 in    
Sea Level Pressure  
Sea Level Pressure 29.89 in    
Wind  
Wind Speed 9 mph (NNW)    
Max Wind Speed 20 mph    
Max Gust Speed 24 mph    
Visibility 9 miles    
Events      
T = Trace of Precipitation, MM = Missing Value Source: NWS Daily Summary

Daily Weather History Graph

Daily Weather History Graph

Search for Another Location

Airport:

Trip Planner

Search our weather history database for the weather conditions in past years. The results will help you decide how hot, cold, wet, or windy it might be!

Date:

Astronomy

Nov. 08, 2012 Rise Set
Actual Time 6:25 AM PST 4:54 PM PST
Civil Twilight 5:58 AM PST 5:21 PM PST
Nautical Twilight 5:28 AM PST 5:51 PM PST
Astronomical Twilight 4:58 AM PST 6:21 PM PST
Moon 12:37 AM PST (11/8) 1:27 PM PST (11/8)
Length of Visible Light 11h 22m
Length of Day
10h 29m
Waning Crescent, 32% of the Moon is Illuminated
Nov 8
Waning Crescent
Nov 13
New
Nov 20
First Quarter
Nov 28
Full
Dec 6
Last Quarter

Hourly Weather History & Observations

Time (PST) Temp. Dew Point Humidity Pressure Visibility Wind Dir Wind Speed Gust Speed Precip Events Conditions
12:54 AM 61.0 °F 44.1 °F 54% 29.86 in 7.0 mi Calm Calm - N/A   Clear
1:54 AM 57.0 °F 43.0 °F 59% 29.86 in 6.0 mi NW 4.6 mph - N/A   Haze
2:54 AM 55.9 °F 43.0 °F 62% 29.85 in 6.0 mi Calm Calm - N/A   Haze
3:54 AM 57.9 °F 44.1 °F 60% 29.85 in 7.0 mi NNW 4.6 mph - N/A   Clear
4:54 AM 57.9 °F 42.1 °F 56% 29.87 in 9.0 mi North 5.8 mph - N/A   Clear
5:54 AM 55.9 °F 43.0 °F 62% 29.87 in 9.0 mi NNE 6.9 mph - N/A   Clear
6:54 AM 55.9 °F 43.0 °F 62% 29.88 in 7.0 mi North 5.8 mph - N/A   Clear
7:54 AM 55.9 °F 45.0 °F 67% 29.92 in 10.0 mi North 18.4 mph - N/A   Clear
8:54 AM 57.9 °F 46.0 °F 65% 29.94 in 10.0 mi NNW 15.0 mph - N/A   Clear
9:54 AM 60.1 °F 46.0 °F 60% 29.97 in 9.0 mi NNW 17.3 mph - N/A   Clear
10:54 AM 62.1 °F 44.1 °F 52% 29.97 in 10.0 mi North 11.5 mph - N/A   Clear
11:54 AM 63.0 °F 45.0 °F 52% 29.95 in 10.0 mi North 11.5 mph - N/A   Clear
12:54 PM 64.9 °F 45.0 °F 48% 29.93 in 10.0 mi NW 10.4 mph - N/A   Partly Cloudy
1:54 PM 64.0 °F 44.1 °F 48% 29.90 in 10.0 mi NNW 4.6 mph - N/A   Scattered Clouds
2:54 PM 63.0 °F 43.0 °F 48% 29.88 in 10.0 mi NW 9.2 mph - N/A   Mostly Cloudy
3:54 PM 62.1 °F 43.0 °F 50% 29.87 in 10.0 mi NW 8.1 mph - N/A   Mostly Cloudy
4:54 PM 61.0 °F 43.0 °F 52% 29.85 in 10.0 mi NNW 5.8 mph - N/A   Mostly Cloudy
5:54 PM 60.1 °F 43.0 °F 53% 29.85 in 9.0 mi NW 6.9 mph - N/A   Mostly Cloudy
6:54 PM 60.1 °F 44.1 °F 55% 29.86 in 9.0 mi NW 10.4 mph - N/A   Overcast
7:54 PM 57.9 °F 46.0 °F 65% 29.86 in 10.0 mi NW 9.2 mph - 0.00 in   Overcast
8:54 PM 59.0 °F 45.0 °F 60% 29.88 in 10.0 mi West 6.9 mph - N/A   Overcast
9:54 PM 57.0 °F 42.1 °F 57% 29.89 in 10.0 mi West 9.2 mph - N/A   Mostly Cloudy
10:54 PM 55.0 °F 39.9 °F 57% 29.90 in 10.0 mi WNW 9.2 mph - N/A   Mostly Cloudy
11:54 PM 55.0 °F 39.9 °F 57% 29.89 in 10.0 mi NW 17.3 mph - N/A   Mostly Cloudy